TimePDT,TemperatureF,Dew PointF,Humidity,Sea Level PressureIn,VisibilityMPH,Wind Direction,Wind SpeedMPH,Gust SpeedMPH,PrecipitationIn,Events,Conditions,WindDirDegrees,DateUTC
12:51 AM,33.8,30.2,87,29.84,5.0,WNW,8.1,-,0.00,Snow,Light Snow,290,2013-03-17 07:51:00
12:55 AM,34.0,30.9,89,29.86,4.0,WNW,8.1,-,0.00,Snow,Light Snow,290,2013-03-17 07:55:00
1:03 AM,33.8,30.2,87,29.84,2.5,WNW,9.2,-,0.00,Snow,Light Snow,290,2013-03-17 08:03:00
1:13 AM,33.8,30.2,87,29.84,1.8,WSW,3.5,-,0.00,Snow,Light Snow,250,2013-03-17 08:13:00
1:21 AM,32.0,30.2,93,29.85,2.0,West,3.5,-,0.01,Snow,Light Snow,260,2013-03-17 08:21:00
1:43 AM,33.8,30.2,87,29.84,3.0,NNW,5.8,-,0.01,Snow,Light Snow,340,2013-03-17 08:43:00
1:55 AM,34.0,30.0,85,29.86,9.0,NW,11.5,-,0.01,,Overcast,310,2013-03-17 08:55:00
2:55 AM,36.0,28.9,76,29.85,10.0,NW,12.7,-,0.03,,Clear,320,2013-03-17 09:55:00
3:55 AM,36.0,27.0,70,29.84,10.0,North,12.7,-,N/A,,Clear,350,2013-03-17 10:55:00
4:55 AM,36.0,25.0,64,29.86,10.0,NW,15.0,-,N/A,,Clear,320,2013-03-17 11:55:00
5:55 AM,37.0,23.0,57,29.89,10.0,NW,20.7,-,N/A,,Clear,320,2013-03-17 12:55:00
6:55 AM,37.0,23.0,57,29.90,10.0,NW,26.5,33.4,N/A,,Clear,320,2013-03-17 13:55:00
7:55 AM,37.0,24.1,59,29.93,10.0,NW,23.0,-,N/A,,Clear,310,2013-03-17 14:55:00
8:55 AM,39.0,26.1,60,29.97,10.0,NW,13.8,-,N/A,,Clear,310,2013-03-17 15:55:00
9:55 AM,42.1,26.1,53,29.99,10.0,NW,17.3,27.6,N/A,,Clear,310,2013-03-17 16:55:00
10:55 AM,45.0,23.0,42,30.01,10.0,NW,19.6,28.8,N/A,,Clear,310,2013-03-17 17:55:00
11:55 AM,46.9,19.9,34,30.01,10.0,NW,25.3,32.2,N/A,,Clear,310,2013-03-17 18:55:00
12:55 PM,46.9,18.0,32,30.03,10.0,WNW,16.1,25.3,N/A,,Partly Cloudy,290,2013-03-17 19:55:00
1:55 PM,46.9,18.0,32,30.03,10.0,NNW,13.8,25.3,N/A,,Clear,330,2013-03-17 20:55:00
2:55 PM,46.9,18.0,32,30.02,10.0,NW,12.7,-,N/A,,Partly Cloudy,310,2013-03-17 21:55:00
3:55 PM,48.0,17.1,29,30.04,10.0,WNW,12.7,-,N/A,,Mostly Cloudy,290,2013-03-17 22:55:00
4:55 PM,46.0,16.0,30,30.04,10.0,West,9.2,-,N/A,,Scattered Clouds,270,2013-03-17 23:55:00
5:55 PM,46.0,16.0,30,30.04,10.0,West,16.1,25.3,N/A,,Mostly Cloudy,270,2013-03-18 00:55:00
6:55 PM,43.0,17.1,35,30.04,10.0,WNW,9.2,-,N/A,,Clear,290,2013-03-18 01:55:00
7:55 PM,39.9,18.0,41,30.04,10.0,WNW,3.5,-,N/A,,Clear,290,2013-03-18 02:55:00
8:55 PM,37.0,19.9,50,30.04,10.0,North,5.8,-,N/A,,Clear,350,2013-03-18 03:55:00
9:55 PM,36.0,21.0,55,30.05,10.0,North,3.5,-,N/A,,Clear,360,2013-03-18 04:55:00
10:55 PM,34.0,21.9,61,30.06,10.0,Calm,Calm,-,N/A,,Clear,0,2013-03-18 05:55:00
11:55 PM,35.1,21.0,57,30.06,10.0,Calm,Calm,-,N/A,,Scattered Clouds,0,2013-03-18 06:55:00